,,,PA_Meas_PMT16A,,PR_Meas_QMR101_102,,RH_Meas_QMH101,,SR_Meas_QMS101,,TA_Meas_QMH101,,GenWind,,GenWind,
date,time,status,PA,status,PR,status,RH,status,SR,status,TA,status,DirAvg,status,SpdAvg,
2008-08-22, 00:00:04,VALID,1009.8,VALID,0,VALID,94.6737,VALID,0,VALID,23.4602,VALID,349,VALID,0.242969,
2008-08-22, 00:01:04,VALID,1009.8,VALID,0,VALID,94.7347,VALID,0,VALID,23.4407,VALID,349,VALID,0.0992187,
2008-08-22, 00:02:04,VALID,1009.8,VALID,0,VALID,94.7652,VALID,0,VALID,23.4407,VALID,346,VALID,0.278125,
2008-08-22, 00:03:04,VALID,1009.78,VALID,0,VALID,94.8415,VALID,0,VALID,23.4389,VALID,260,VALID,0.418359,
2008-08-22, 00:04:04,VALID,1009.78,VALID,0,VALID,94.9025,VALID,0,VALID,23.4602,VALID,247,VALID,0.0242187,
2008-08-22, 00:05:04,VALID,1009.79,VALID,0,VALID,94.9254,VALID,0,VALID,23.4797,VALID,286,VALID,0.323047,
2008-08-22, 00:06:04,VALID,1009.75,VALID,0,VALID,94.9711,VALID,0,VALID,23.4992,VALID,287,VALID,0,
2008-08-22, 00:07:04,VALID,1009.73,VALID,0,VALID,94.9635,VALID,0,VALID,23.5186,VALID,287,VALID,0.298438,
2008-08-22, 00:08:04,VALID,1009.72,VALID,0,VALID,94.9711,VALID,0,VALID,23.5186,VALID,289,VALID,0.0148437,
2008-08-22, 00:09:04,VALID,1009.71,VALID,0,VALID,94.9178,VALID,0,VALID,23.4992,VALID,348,VALID,0.389453,
2008-08-22, 00:10:04,VALID,1009.7,VALID,0,VALID,94.8949,VALID,0,VALID,23.4797,VALID,39,VALID,0.330078,
2008-08-22, 00:11:04,VALID,1009.71,VALID,0,VALID,94.8949,VALID,0,VALID,23.4602,VALID,39,VALID,0.0945313,
2008-08-22, 00:12:04,VALID,1009.69,VALID,0,VALID,94.9101,VALID,0,VALID,23.4602,VALID,39,VALID,0,
2008-08-22, 00:13:04,VALID,1009.69,VALID,0,VALID,94.9025,VALID,0,VALID,23.4602,VALID,39,VALID,0.0832031,
2008-08-22, 00:14:04,VALID,1009.69,VALID,0,VALID,94.9101,VALID,0,VALID,23.4407,VALID,39,VALID,0,
2008-08-22, 00:15:04,VALID,1009.68,VALID,0,VALID,94.933,VALID,0,VALID,23.4407,VALID,39,VALID,0,
2008-08-22, 00:16:04,VALID,1009.68,VALID,0,VALID,94.933,VALID,0,VALID,23.4797,VALID,39,VALID,0.0128906,
2008-08-22, 00:17:04,VALID,1009.65,VALID,0,VALID,95.0016,VALID,0.105969,VALID,23.4584,VALID,39,VALID,0.0777344,
2008-08-22, 00:18:04,VALID,1009.66,VALID,0,VALID,95.0321,VALID,0.105969,VALID,23.4566,VALID,39,VALID,0.117578,
2008-08-22, 00:19:04,VALID,1009.62,VALID,0,VALID,95.0474,VALID,0.105969,VALID,23.4779,VALID,39,VALID,0.226172,
2008-08-22, 00:20:04,VALID,1009.61,VALID,0,VALID,95.0703,VALID,0,VALID,23.4779,VALID,39,VALID,0.0675781,
2008-08-22, 00:21:04,VALID,1009.6,VALID,0,VALID,95.0626,VALID,0,VALID,23.4974,VALID,39,VALID,0.0671875,
2008-08-22, 00:22:04,VALID,1009.59,VALID,0,VALID,95.0474,VALID,0,VALID,23.4974,VALID,39,VALID,0.0816406,
2008-08-22, 00:23:04,VALID,1009.56,VALID,0,VALID,95.0474,VALID,0.105969,VALID,23.4974,VALID,39,VALID,0.0046875,
2008-08-22, 00:24:04,VALID,1009.57,VALID,0,VALID,95.055,VALID,0.105969,VALID,23.5381,VALID,39,VALID,0.0964844,
2008-08-22, 00:25:04,VALID,1009.57,VALID,0,VALID,95.0398,VALID,0,VALID,23.5169,VALID,39,VALID,0,
2008-08-22, 00:26:04,VALID,1009.56,VALID,0,VALID,95.055,VALID,0.105969,VALID,23.4974,VALID,39,VALID,0.139844,
2008-08-22, 00:27:04,VALID,1009.56,VALID,0,VALID,95.055,VALID,0.105969,VALID,23.5169,VALID,39,VALID,0.147266,
2008-08-22, 00:28:04,VALID,1009.56,VALID,0,VALID,95.0474,VALID,0.105969,VALID,23.5169,VALID,39,VALID,0.361328,
2008-08-22, 00:29:04,VALID,1009.57,VALID,0,VALID,95.0398,VALID,0.105969,VALID,23.5169,VALID,39,VALID,0.430469,
2008-08-22, 00:30:04,VALID,1009.57,VALID,0,VALID,95.0169,VALID,0.105969,VALID,23.5169,VALID,41,VALID,0.474609,
2008-08-22, 00:31:04,VALID,1009.56,VALID,0,VALID,94.994,VALID,0.105969,VALID,23.4974,VALID,41,VALID,0.524219,
2008-08-22, 00:32:04,VALID,1009.57,VALID,0,VALID,94.9788,VALID,0,VALID,23.4779,VALID,63,VALID,0.476172,
2008-08-22, 00:33:04,VALID,1009.56,VALID,0,VALID,94.9559,VALID,0.105969,VALID,23.4779,VALID,67,VALID,0.455469,
2008-08-22, 00:34:04,VALID,1009.58,VALID,0,VALID,94.933,VALID,0.105969,VALID,23.4797,VALID,67,VALID,0.308984,
2008-08-22, 00:35:04,VALID,1009.57,VALID,0,VALID,94.9254,VALID,0.105969,VALID,23.4584,VALID,67,VALID,0,
2008-08-22, 00:36:04,VALID,1009.55,VALID,0,VALID,94.9178,VALID,0.105969,VALID,23.4194,VALID,67,VALID,0,
2008-08-22, 00:37:04,VALID,1009.56,VALID,0,VALID,94.9025,VALID,0.105969,VALID,23.4194,VALID,67,VALID,0,
2008-08-22, 00:38:04,VALID,1009.54,VALID,0,VALID,94.9178,VALID,0.105969,VALID,23.4,VALID,67,VALID,0,
2008-08-22, 00:39:04,VALID,1009.56,VALID,0,VALID,94.9483,VALID,0,VALID,23.4,VALID,67,VALID,0,
2008-08-22, 00:40:04,VALID,1009.54,VALID,0,VALID,94.9635,VALID,0.105969,VALID,23.4017,VALID,67,VALID,0,
2008-08-22, 00:41:04,VALID,1009.58,VALID,0,VALID,94.9788,VALID,0,VALID,23.361,VALID,67,VALID,0,
2008-08-22, 00:42:04,VALID,1009.58,VALID,0,VALID,95.0093,VALID,0,VALID,23.3805,VALID,62,VALID,0.287891,
2008-08-22, 00:43:04,VALID,1009.59,VALID,0,VALID,95.0245,VALID,0,VALID,23.361,VALID,61,VALID,0,
2008-08-22, 00:44:04,VALID,1009.6,VALID,0,VALID,95.0703,VALID,0.105969,VALID,23.361,VALID,61,VALID,0,
2008-08-22, 00:45:04,VALID,1009.64,VALID,0,VALID,95.0703,VALID,0.105969,VALID,23.3415,VALID,61,VALID,0.138281,
2008-08-22, 00:46:04,VALID,1009.62,VALID,0,VALID,95.0855,VALID,0.105969,VALID,23.3026,VALID,61,VALID,0.0175781,
2008-08-22, 00:47:04,VALID,1009.66,VALID,0,VALID,95.1008,VALID,0.105969,VALID,23.322,VALID,61,VALID,0.266797,
2008-08-22, 00:48:04,VALID,1009.64,VALID,0,VALID,95.1084,VALID,0.105969,VALID,23.3433,VALID,61,VALID,0.187891,
2008-08-22, 00:49:04,VALID,1009.67,VALID,0,VALID,95.116,VALID,0.105969,VALID,23.3026,VALID,61,VALID,0.382031,
2008-08-22, 00:50:04,VALID,1009.62,VALID,0,VALID,95.1389,VALID,0.105969,VALID,23.322,VALID,61,VALID,0.272266,
2008-08-22, 00:51:04,VALID,1009.62,VALID,0,VALID,95.1389,VALID,0.105969,VALID,23.3026,VALID,61,VALID,0.342578,
2008-08-22, 00:52:04,VALID,1009.64,VALID,0,VALID,95.1847,VALID,0,VALID,23.2831,VALID,61,VALID,0.297656,
2008-08-22, 00:53:04,VALID,1009.62,VALID,0,VALID,95.1923,VALID,0.105969,VALID,23.2831,VALID,60,VALID,0.408203,
2008-08-22, 00:54:04,VALID,1009.62,VALID,0,VALID,95.2228,VALID,0.105969,VALID,23.2636,VALID,60,VALID,0.310547,
2008-08-22, 00:55:04,VALID,1009.61,VALID,0,VALID,95.238,VALID,0,VALID,23.3043,VALID,42,VALID,0.371094,
2008-08-22, 00:56:04,VALID,1009.58,VALID,0,VALID,95.2457,VALID,0.105969,VALID,23.3026,VALID,10,VALID,0.669922,
2008-08-22, 00:57:04,VALID,1009.58,VALID,0,VALID,95.2533,VALID,0.105969,VALID,23.2831,VALID,13,VALID,0.321484,
2008-08-22, 00:58:04,VALID,1009.56,VALID,0,VALID,95.2533,VALID,0,VALID,23.2831,VALID,13,VALID,0.285156,
2008-08-22, 00:59:04,VALID,1009.54,VALID,0,VALID,95.2685,VALID,0.105969,VALID,23.2831,VALID,4,VALID,0.353906,
2008-08-22, 01:00:04,VALID,1009.51,VALID,0,VALID,95.2914,VALID,0.105969,VALID,23.2848,VALID,346,VALID,0.292188,
2008-08-22, 01:01:04,VALID,1009.51,VALID,0,VALID,95.3143,VALID,0,VALID,23.2831,VALID,340,VALID,0.0371094,
2008-08-22, 01:02:04,VALID,1009.48,VALID,0,VALID,95.3295,VALID,0.105969,VALID,23.3026,VALID,340,VALID,0,
2008-08-22, 01:03:04,VALID,1009.53,VALID,0,VALID,95.3295,VALID,0.105969,VALID,23.3238,VALID,340,VALID,0,
2008-08-22, 01:04:04,VALID,1009.54,VALID,0,VALID,95.3753,VALID,0,VALID,23.3628,VALID,149,VALID,0.682422,
2008-08-22, 01:05:04,VALID,1009.59,VALID,0,VALID,95.3524,VALID,0.105969,VALID,23.3415,VALID,150,VALID,0.610547,
2008-08-22, 01:06:04,VALID,1009.59,VALID,0,VALID,95.36,VALID,0,VALID,23.361,VALID,135,VALID,0.702344,
2008-08-22, 01:07:04,VALID,1009.57,VALID,0,VALID,95.36,VALID,0.105969,VALID,23.4212,VALID,133,VALID,1.0918,
2008-08-22, 01:08:04,VALID,1009.6,VALID,0,VALID,95.3524,VALID,0.105969,VALID,23.4602,VALID,119,VALID,0.889063,
2008-08-22, 01:09:04,VALID,1009.59,VALID,0,VALID,95.3372,VALID,0.105969,VALID,23.4584,VALID,38,VALID,0.939453,
2008-08-22, 01:10:04,VALID,1009.59,VALID,0,VALID,95.2609,VALID,0.105969,VALID,23.4779,VALID,38,VALID,0.474219,
2008-08-22, 01:11:04,VALID,1009.56,VALID,0,VALID,95.2075,VALID,0.105969,VALID,23.4779,VALID,14,VALID,0.442187,
2008-08-22, 01:12:04,VALID,1009.56,VALID,0,VALID,95.1618,VALID,0.105969,VALID,23.5169,VALID,65,VALID,0.321094,
2008-08-22, 01:13:04,VALID,1009.55,VALID,0,VALID,95.1389,VALID,0.105969,VALID,23.4974,VALID,9,VALID,0.347266,
2008-08-22, 01:14:04,VALID,1009.53,VALID,0,VALID,95.0931,VALID,0,VALID,23.4974,VALID,6,VALID,0.377344,
2008-08-22, 01:15:04,VALID,1009.48,VALID,0,VALID,95.0321,VALID,0,VALID,23.4974,VALID,5,VALID,0.0667969,
2008-08-22, 01:16:04,VALID,1009.49,VALID,0,VALID,95.0321,VALID,0,VALID,23.4974,VALID,360,VALID,0.0015625,
2008-08-22, 01:17:04,VALID,1009.49,VALID,0,VALID,94.994,VALID,0.105969,VALID,23.5186,VALID,360,VALID,0.00117188,
2008-08-22, 01:18:04,VALID,1009.48,VALID,0,VALID,94.9864,VALID,0.105969,VALID,23.5186,VALID,357,VALID,0.279297,
2008-08-22, 01:19:04,VALID,1009.47,VALID,0,VALID,94.933,VALID,0.105969,VALID,23.5169,VALID,313,VALID,0.410937,
2008-08-22, 01:20:04,VALID,1009.46,VALID,0,VALID,94.933,VALID,0,VALID,23.5169,VALID,302,VALID,0.476953,
2008-08-22, 01:21:04,VALID,1009.46,VALID,0,VALID,94.9101,VALID,0.105969,VALID,23.5169,VALID,268,VALID,0.282422,
2008-08-22, 01:22:04,VALID,1009.44,VALID,0,VALID,94.8873,VALID,0.105969,VALID,23.5169,VALID,325,VALID,0.138672,
2008-08-22, 01:23:04,VALID,1009.43,VALID,0,VALID,94.8415,VALID,0.105969,VALID,23.4974,VALID,64,VALID,0.351563,
2008-08-22, 01:24:04,VALID,1009.42,VALID,0,VALID,94.8339,VALID,0.105969,VALID,23.4974,VALID,75,VALID,0.512891,
2008-08-22, 01:25:04,VALID,1009.36,VALID,0,VALID,94.8186,VALID,0.105969,VALID,23.4584,VALID,81,VALID,0.213672,
2008-08-22, 01:26:04,VALID,1009.38,VALID,0,VALID,94.8034,VALID,0,VALID,23.4779,VALID,56,VALID,0.267188,
2008-08-22, 01:27:04,VALID,1009.38,VALID,0,VALID,94.7957,VALID,0,VALID,23.4779,VALID,57,VALID,0.208203,
2008-08-22, 01:28:04,VALID,1009.38,VALID,0,VALID,94.8034,VALID,0,VALID,23.4584,VALID,57,VALID,0,
2008-08-22, 01:29:04,VALID,1009.36,VALID,0,VALID,94.811,VALID,0.105969,VALID,23.4779,VALID,57,VALID,0,
2008-08-22, 01:30:04,VALID,1009.35,VALID,0,VALID,94.8339,VALID,0.105969,VALID,23.4974,VALID,100,VALID,0.401172,
2008-08-22, 01:31:04,VALID,1009.36,VALID,0,VALID,94.8491,VALID,0.105969,VALID,23.4992,VALID,111,VALID,0.316406,
2008-08-22, 01:32:04,VALID,1009.34,VALID,0,VALID,94.8568,VALID,0,VALID,23.4992,VALID,111,VALID,0.125391,
2008-08-22, 01:33:04,VALID,1009.31,VALID,0,VALID,94.8568,VALID,0,VALID,23.4992,VALID,111,VALID,0.169531,
2008-08-22, 01:34:04,VALID,1009.31,VALID,0,VALID,94.872,VALID,0,VALID,23.4974,VALID,111,VALID,0,
2008-08-22, 01:35:04,VALID,1009.28,VALID,0,VALID,94.8873,VALID,0.105969,VALID,23.5381,VALID,111,VALID,0,
2008-08-22, 01:36:04,VALID,1009.27,VALID,0,VALID,94.8949,VALID,0.105969,VALID,23.5381,VALID,111,VALID,0,
2008-08-22, 01:37:04,VALID,1009.23,VALID,0,VALID,94.9178,VALID,0,VALID,23.5381,VALID,111,VALID,0,
2008-08-22, 01:38:04,VALID,1009.2,VALID,0,VALID,94.9101,VALID,0.105969,VALID,23.5169,VALID,111,VALID,0,
2008-08-22, 01:39:04,VALID,1009.23,VALID,0,VALID,94.9178,VALID,0,VALID,23.5576,VALID,111,VALID,0.515625,
2008-08-22, 01:40:04,VALID,1009.2,VALID,0,VALID,94.9254,VALID,0.105969,VALID,23.5363,VALID,108,VALID,0.478125,
2008-08-22, 01:41:04,VALID,1009.19,VALID,0,VALID,94.9025,VALID,0,VALID,23.5169,VALID,75,VALID,0.671484,
2008-08-22, 01:42:04,VALID,1009.19,VALID,0,VALID,94.8796,VALID,0.105969,VALID,23.5169,VALID,68,VALID,0.617578,
2008-08-22, 01:43:04,VALID,1009.2,VALID,0,VALID,94.8491,VALID,0,VALID,23.4974,VALID,63,VALID,0.546094,
2008-08-22, 01:44:04,VALID,1009.21,VALID,0,VALID,94.811,VALID,0,VALID,23.5186,VALID,63,VALID,0.498047,
2008-08-22, 01:45:04,VALID,1009.22,VALID,0,VALID,94.7957,VALID,0,VALID,23.4797,VALID,63,VALID,0.555859,
2008-08-22, 01:46:04,VALID,1009.23,VALID,0,VALID,94.7576,VALID,0.105969,VALID,23.4602,VALID,63,VALID,0.416797,
2008-08-22, 01:47:04,VALID,1009.19,VALID,0,VALID,94.7805,VALID,0.105969,VALID,23.4389,VALID,63,VALID,0.327734,
2008-08-22, 01:48:04,VALID,1009.21,VALID,0,VALID,94.7576,VALID,0,VALID,23.4194,VALID,57,VALID,0.444531,
2008-08-22, 01:49:04,VALID,1009.2,VALID,0,VALID,94.7805,VALID,0,VALID,23.3805,VALID,57,VALID,0.364844,
2008-08-22, 01:50:04,VALID,1009.19,VALID,0,VALID,94.7805,VALID,0,VALID,23.361,VALID,57,VALID,0.180469,
2008-08-22, 01:51:04,VALID,1009.18,VALID,0,VALID,94.8262,VALID,0.105969,VALID,23.3805,VALID,57,VALID,0.122266,
2008-08-22, 01:52:04,VALID,1009.16,VALID,0,VALID,94.8491,VALID,0.105969,VALID,23.3823,VALID,57,VALID,0,
2008-08-22, 01:53:04,VALID,1009.17,VALID,0,VALID,94.9025,VALID,0.105969,VALID,23.361,VALID,57,VALID,0.155859,
2008-08-22, 01:54:04,VALID,1009.16,VALID,0,VALID,94.9178,VALID,0.105969,VALID,23.361,VALID,57,VALID,0.289063,
2008-08-22, 01:55:04,VALID,1009.16,VALID,0,VALID,94.9025,VALID,0,VALID,23.3415,VALID,57,VALID,0.321875,
2008-08-22, 01:56:04,VALID,1009.19,VALID,0,VALID,94.9254,VALID,0,VALID,23.322,VALID,57,VALID,0.335156,
2008-08-22, 01:57:04,VALID,1009.19,VALID,0,VALID,94.9406,VALID,0,VALID,23.2831,VALID,57,VALID,0.369141,
2008-08-22, 01:58:04,VALID,1009.2,VALID,0,VALID,95.0016,VALID,0,VALID,23.3026,VALID,63,VALID,0.658984,
2008-08-22, 01:59:04,VALID,1009.19,VALID,0,VALID,95.0093,VALID,0,VALID,23.3043,VALID,63,VALID,0.294141,
2008-08-22, 02:00:04,VALID,1009.19,VALID,0,VALID,95.0169,VALID,0,VALID,23.3043,VALID,63,VALID,0.233203,
2008-08-22, 02:01:04,VALID,1009.18,VALID,0,VALID,95.0245,VALID,0.105969,VALID,23.2831,VALID,63,VALID,0,
2008-08-22, 02:02:04,VALID,1009.18,VALID,0,VALID,95.0474,VALID,0.105969,VALID,23.2831,VALID,63,VALID,0,
2008-08-22, 02:03:04,VALID,1009.17,VALID,0,VALID,95.0703,VALID,0,VALID,23.2848,VALID,63,VALID,0.142188,
2008-08-22, 02:04:04,VALID,1009.17,VALID,0,VALID,95.116,VALID,0.105969,VALID,23.3043,VALID,63,VALID,0.0574219,
2008-08-22, 02:05:04,VALID,1009.19,VALID,0,VALID,95.1313,VALID,0.105969,VALID,23.2636,VALID,63,VALID,0.141797,
2008-08-22, 02:06:04,VALID,1009.18,VALID,0,VALID,95.1542,VALID,0.105969,VALID,23.2831,VALID,63,VALID,0.0382813,
2008-08-22, 02:07:04,VALID,1009.18,VALID,0,VALID,95.1847,VALID,0,VALID,23.3026,VALID,63,VALID,0,
2008-08-22, 02:08:04,VALID,1009.18,VALID,0,VALID,95.1465,VALID,0,VALID,23.2441,VALID,63,VALID,0,
2008-08-22, 02:09:04,VALID,1009.18,VALID,0,VALID,95.1465,VALID,0,VALID,23.2441,VALID,63,VALID,0,
2008-08-22, 02:10:04,VALID,1009.17,VALID,0,VALID,95.1618,VALID,0.105969,VALID,23.2636,VALID,63,VALID,0,
2008-08-22, 02:11:04,VALID,1009.19,VALID,0,VALID,95.1923,VALID,0.105969,VALID,23.2229,VALID,63,VALID,0,
2008-08-22, 02:12:04,VALID,1009.21,VALID,0,VALID,95.1923,VALID,0.105969,VALID,23.2441,VALID,63,VALID,0,
2008-08-22, 02:13:04,VALID,1009.25,VALID,0,VALID,95.2152,VALID,0.105969,VALID,23.2441,VALID,63,VALID,0,
2008-08-22, 02:14:04,VALID,1009.26,VALID,0,VALID,95.2152,VALID,0.105969,VALID,23.2246,VALID,63,VALID,0.217578,
2008-08-22, 02:15:04,VALID,1009.26,VALID,0,VALID,95.2152,VALID,0.105969,VALID,23.2246,VALID,63,VALID,0.179688,
2008-08-22, 02:16:04,VALID,1009.27,VALID,0,VALID,95.2304,VALID,0,VALID,23.2264,VALID,63,VALID,0,
2008-08-22, 02:17:04,VALID,1009.28,VALID,0,VALID,95.2457,VALID,0.105969,VALID,23.2264,VALID,63,VALID,0,
2008-08-22, 02:18:04,VALID,1009.31,VALID,0,VALID,95.2457,VALID,0.105969,VALID,23.2264,VALID,63,VALID,0,
2008-08-22, 02:19:04,VALID,1009.3,VALID,0,VALID,95.2762,VALID,0.105969,VALID,23.2051,VALID,63,VALID,0.114063,
2008-08-22, 02:20:04,VALID,1009.31,VALID,0,VALID,95.2533,VALID,0,VALID,23.1857,VALID,63,VALID,0.199609,
2008-08-22, 02:21:04,VALID,1009.33,VALID,0,VALID,95.2685,VALID,0.105969,VALID,23.1857,VALID,63,VALID,0.434375,
2008-08-22, 02:22:04,VALID,1009.31,VALID,0,VALID,95.299,VALID,0.105969,VALID,23.1857,VALID,83,VALID,0.535547,
2008-08-22, 02:23:04,VALID,1009.32,VALID,0,VALID,95.3219,VALID,0.105969,VALID,23.1857,VALID,97,VALID,0.369922,
2008-08-22, 02:24:04,VALID,1009.32,VALID,0,VALID,95.3448,VALID,0,VALID,23.2246,VALID,97,VALID,0.242578,
2008-08-22, 02:25:04,VALID,1009.27,VALID,0,VALID,95.3448,VALID,0.105969,VALID,23.2051,VALID,97,VALID,0.00195313,
2008-08-22, 02:26:04,VALID,1009.24,VALID,0,VALID,95.3295,VALID,0.105969,VALID,23.1857,VALID,97,VALID,0,
2008-08-22, 02:27:04,VALID,1009.23,VALID,0,VALID,95.3524,VALID,0,VALID,23.1662,VALID,97,VALID,0,
2008-08-22, 02:28:04,VALID,1009.22,VALID,0,VALID,95.3372,VALID,0,VALID,23.1662,VALID,97,VALID,0,
2008-08-22, 02:29:04,VALID,1009.19,VALID,0,VALID,95.3448,VALID,0.105969,VALID,23.1857,VALID,97,VALID,0,
2008-08-22, 02:30:04,VALID,1009.19,VALID,0,VALID,95.3677,VALID,0.105969,VALID,23.1857,VALID,97,VALID,0,
2008-08-22, 02:31:04,VALID,1009.2,VALID,0,VALID,95.3753,VALID,0,VALID,23.2087,VALID,97,VALID,0.00703125,
2008-08-22, 02:32:04,VALID,1009.2,VALID,0,VALID,95.4058,VALID,0,VALID,23.1874,VALID,96,VALID,0.186328,
2008-08-22, 02:33:04,VALID,1009.21,VALID,0,VALID,95.4058,VALID,0,VALID,23.2087,VALID,93,VALID,0.221875,
2008-08-22, 02:34:04,VALID,1009.2,VALID,0,VALID,95.4211,VALID,0,VALID,23.2069,VALID,18,VALID,0.295703,
2008-08-22, 02:35:04,VALID,1009.23,VALID,0,VALID,95.4134,VALID,0,VALID,23.2087,VALID,18,VALID,0.0550781,
2008-08-22, 02:36:04,VALID,1009.24,VALID,0,VALID,95.4058,VALID,0,VALID,23.1874,VALID,18,VALID,0.147656,
2008-08-22, 02:37:04,VALID,1009.24,VALID,0,VALID,95.3982,VALID,0,VALID,23.2087,VALID,18,VALID,0.202344,
2008-08-22, 02:38:04,VALID,1009.22,VALID,0,VALID,95.4211,VALID,0,VALID,23.2087,VALID,18,VALID,0.413672,
2008-08-22, 02:39:04,VALID,1009.24,VALID,0,VALID,95.4287,VALID,0,VALID,23.2087,VALID,18,VALID,0.261719,
2008-08-22, 02:40:04,VALID,1009.2,VALID,0,VALID,95.4134,VALID,0,VALID,23.2087,VALID,18,VALID,0.330078,
2008-08-22, 02:41:04,VALID,1009.22,VALID,0,VALID,95.4134,VALID,0,VALID,23.1892,VALID,18,VALID,0.235156,
2008-08-22, 02:42:04,VALID,1009.2,VALID,0,VALID,95.4211,VALID,0,VALID,23.1874,VALID,18,VALID,0.133594,
2008-08-22, 02:43:04,VALID,1009.21,VALID,0,VALID,95.4287,VALID,0,VALID,23.1679,VALID,18,VALID,0.180469,
2008-08-22, 02:44:04,VALID,1009.23,VALID,0,VALID,95.4287,VALID,0,VALID,23.1874,VALID,18,VALID,0.168359,
2008-08-22, 02:45:04,VALID,1009.27,VALID,0,VALID,95.4592,VALID,0,VALID,23.1485,VALID,18,VALID,0.206641,
2008-08-22, 02:46:04,VALID,1009.25,VALID,0,VALID,95.4439,VALID,0,VALID,23.1485,VALID,18,VALID,0.146484,
2008-08-22, 02:47:04,VALID,1009.27,VALID,0,VALID,95.4821,VALID,0,VALID,23.1874,VALID,18,VALID,0.0148437,
2008-08-22, 02:48:04,VALID,1009.31,VALID,0,VALID,95.4897,VALID,0,VALID,23.1874,VALID,18,VALID,0.303125,
2008-08-22, 02:49:04,VALID,1009.29,VALID,0,VALID,95.4897,VALID,0,VALID,23.2069,VALID,20,VALID,0.225391,
2008-08-22, 02:50:04,VALID,1009.32,VALID,0,VALID,95.5202,VALID,0,VALID,23.2264,VALID,90,VALID,0.294141,
2008-08-22, 02:51:04,VALID,1009.32,VALID,0,VALID,95.5202,VALID,0,VALID,23.2459,VALID,90,VALID,0.301562,
2008-08-22, 02:52:04,VALID,1009.33,VALID,0,VALID,95.5278,VALID,0,VALID,23.2459,VALID,77,VALID,0.169922,
2008-08-22, 02:53:04,VALID,1009.35,VALID,0,VALID,95.5354,VALID,0,VALID,23.2848,VALID,77,VALID,0.388672,
2008-08-22, 02:54:04,VALID,1009.33,VALID,0,VALID,95.5431,VALID,0,VALID,23.2654,VALID,80,VALID,0.210547,
2008-08-22, 02:55:04,VALID,1009.35,VALID,0,VALID,95.5278,VALID,0,VALID,23.3061,VALID,77,VALID,0.342187,
2008-08-22, 02:56:04,VALID,1009.36,VALID,0,VALID,95.5202,VALID,0,VALID,23.2848,VALID,72,VALID,0.476172,
2008-08-22, 02:57:04,VALID,1009.34,VALID,0,VALID,95.5049,VALID,0,VALID,23.2848,VALID,72,VALID,0.378125,
2008-08-22, 02:58:04,VALID,1009.33,VALID,0,VALID,95.5049,VALID,0,VALID,23.2848,VALID,72,VALID,0.312891,
2008-08-22, 02:59:04,VALID,1009.36,VALID,0,VALID,95.5126,VALID,0,VALID,23.3043,VALID,72,VALID,0.290625,
2008-08-22, 03:00:04,VALID,1009.33,VALID,0,VALID,95.5049,VALID,0,VALID,23.2848,VALID,72,VALID,0.174609,
2008-08-22, 03:01:04,VALID,1009.35,VALID,0,VALID,95.4516,VALID,0,VALID,23.2654,VALID,72,VALID,0.215625,
2008-08-22, 03:02:04,VALID,1009.36,VALID,0,VALID,95.4592,VALID,0,VALID,23.2654,VALID,65,VALID,0.441406,
2008-08-22, 03:03:04,VALID,1009.37,VALID,0,VALID,95.4363,VALID,0,VALID,23.2671,VALID,65,VALID,0.280078,
2008-08-22, 03:04:04,VALID,1009.35,VALID,0,VALID,95.4287,VALID,0,VALID,23.2459,VALID,65,VALID,0,
2008-08-22, 03:05:04,VALID,1009.35,VALID,0,VALID,95.4439,VALID,0,VALID,23.2459,VALID,65,VALID,0.116406,
2008-08-22, 03:06:04,VALID,1009.33,VALID,0,VALID,95.4363,VALID,0,VALID,23.2459,VALID,65,VALID,0.213281,
2008-08-22, 03:07:04,VALID,1009.34,VALID,0,VALID,95.4516,VALID,0,VALID,23.2671,VALID,68,VALID,0.345703,
2008-08-22, 03:08:04,VALID,1009.3,VALID,0,VALID,95.4363,VALID,0,VALID,23.2654,VALID,67,VALID,0.630078,
2008-08-22, 03:09:04,VALID,1009.28,VALID,0,VALID,95.4668,VALID,0,VALID,23.2654,VALID,66,VALID,0.337109,
2008-08-22, 03:10:04,VALID,1009.25,VALID,0,VALID,95.4363,VALID,0,VALID,23.2866,VALID,59,VALID,0.394922,
2008-08-22, 03:11:04,VALID,1009.24,VALID,0,VALID,95.4363,VALID,0,VALID,23.2459,VALID,59,VALID,0.336328,
2008-08-22, 03:12:04,VALID,1009.23,VALID,0,VALID,95.4211,VALID,0,VALID,23.2654,VALID,59,VALID,0,
2008-08-22, 03:13:04,VALID,1009.26,VALID,0,VALID,95.4363,VALID,0,VALID,23.2459,VALID,61,VALID,0.271094,
2008-08-22, 03:14:04,VALID,1009.26,VALID,0,VALID,95.3982,VALID,0,VALID,23.2671,VALID,63,VALID,0.0964844,
2008-08-22, 03:15:04,VALID,1009.24,VALID,0,VALID,95.4134,VALID,0,VALID,23.2264,VALID,63,VALID,0.289453,
2008-08-22, 03:16:04,VALID,1009.28,VALID,0,VALID,95.3677,VALID,0,VALID,23.2264,VALID,63,VALID,0.00273437,
2008-08-22, 03:17:04,VALID,1009.25,VALID,0,VALID,95.3905,VALID,0,VALID,23.2476,VALID,63,VALID,0.233984,
2008-08-22, 03:18:04,VALID,1009.26,VALID,0,VALID,95.3905,VALID,0,VALID,23.2476,VALID,63,VALID,0,
2008-08-22, 03:19:04,VALID,1009.26,VALID,0,VALID,95.3829,VALID,0,VALID,23.2282,VALID,63,VALID,0.0304688,
2008-08-22, 03:20:04,VALID,1009.25,VALID,0,VALID,95.3982,VALID,0,VALID,23.2069,VALID,63,VALID,0,
2008-08-22, 03:21:04,VALID,1009.26,VALID,0,VALID,95.3982,VALID,0,VALID,23.2069,VALID,63,VALID,0.194922,
2008-08-22, 03:22:04,VALID,1009.24,VALID,0,VALID,95.3829,VALID,0,VALID,23.2087,VALID,63,VALID,0.00429688,
2008-08-22, 03:23:04,VALID,1009.23,VALID,0,VALID,95.4134,VALID,0,VALID,23.1874,VALID,63,VALID,0.376563,
2008-08-22, 03:24:04,VALID,1009.22,VALID,0,VALID,95.3829,VALID,0,VALID,23.1874,VALID,63,VALID,0.194922,
2008-08-22, 03:25:04,VALID,1009.2,VALID,0,VALID,95.3829,VALID,0,VALID,23.1679,VALID,63,VALID,0.028125,
2008-08-22, 03:26:04,VALID,1009.18,VALID,0,VALID,95.3753,VALID,0,VALID,23.1679,VALID,63,VALID,0,
2008-08-22, 03:27:04,VALID,1009.18,VALID,0,VALID,95.3982,VALID,0,VALID,23.1892,VALID,63,VALID,0.204688,
2008-08-22, 03:28:04,VALID,1009.16,VALID,0,VALID,95.4134,VALID,0,VALID,23.1892,VALID,63,VALID,0,
2008-08-22, 03:29:04,VALID,1009.15,VALID,0,VALID,95.3829,VALID,0,VALID,23.1485,VALID,63,VALID,0,
2008-08-22, 03:30:04,VALID,1009.13,VALID,0,VALID,95.3982,VALID,0,VALID,23.1697,VALID,63,VALID,0.00429688,
2008-08-22, 03:31:04,VALID,1009.14,VALID,0,VALID,95.4134,VALID,0,VALID,23.1467,VALID,63,VALID,0,
2008-08-22, 03:32:04,VALID,1009.14,VALID,0,VALID,95.4211,VALID,0,VALID,23.1467,VALID,63,VALID,0.00117188,
2008-08-22, 03:33:04,VALID,1009.11,VALID,0,VALID,95.4439,VALID,0,VALID,23.1679,VALID,63,VALID,0.179688,
2008-08-22, 03:34:04,VALID,1009.12,VALID,0,VALID,95.4516,VALID,0,VALID,23.1679,VALID,63,VALID,0.245312,
2008-08-22, 03:35:04,VALID,1009.11,VALID,0,VALID,95.4516,VALID,0,VALID,23.1467,VALID,65,VALID,0.335938,
2008-08-22, 03:36:04,VALID,1009.12,VALID,0,VALID,95.4592,VALID,0,VALID,23.1467,VALID,85,VALID,0.232031,
2008-08-22, 03:37:04,VALID,1009.1,VALID,0,VALID,95.4516,VALID,0.105969,VALID,23.1467,VALID,85,VALID,0.201172,
2008-08-22, 03:38:04,VALID,1009.1,VALID,0,VALID,95.4592,VALID,0.105969,VALID,23.1467,VALID,85,VALID,0.420703,
2008-08-22, 03:39:04,VALID,1009.11,VALID,0,VALID,95.4668,VALID,0.105969,VALID,23.1662,VALID,85,VALID,0.350781,
2008-08-22, 03:40:04,VALID,1009.12,VALID,0,VALID,95.4592,VALID,0,VALID,23.1467,VALID,74,VALID,0.289453,
2008-08-22, 03:41:04,VALID,1009.15,VALID,0,VALID,95.4821,VALID,0,VALID,23.1662,VALID,74,VALID,0.273438,
2008-08-22, 03:42:04,VALID,1009.15,VALID,0,VALID,95.4897,VALID,0,VALID,23.1874,VALID,74,VALID,0.285547,
2008-08-22, 03:43:04,VALID,1009.18,VALID,0,VALID,95.4744,VALID,0,VALID,23.1874,VALID,74,VALID,0.183594,